Regional Weather Roundup
Issued by NWS Midland/Odessa, TX

Skip options and go directly to product.
Home | Oldest Version | Previous Version | Current Version | All | Text Only | Save Text | Print | Product List | Glossary On

Skip product version selection by date and time.   
069
ASUS44 KMAF 240610
RWRMAF
MIDLAND AREA WEATHER ROUNDUP
NATIONAL WEATHER SERVICE MIDLAND TX
100 AM CDT THU APR 24 2014

...IN SOUTHWEST TEXAS AND SOUTHEAST NEW MEXICO...

CITY           SKY/WX    TMP DP  RH WIND       PRES   REMARKS
ALPINE         FAIR      71  17  13 NW8       29.94R
ANDREWS        FAIR      70  55  58 SW13      29.76S
ARTESIA        CLEAR     64  23  20 W14G25    29.81R
BIG SPRING     FAIR      74  55  52 S13       29.75R
CARLSBAD       CLEAR     65  26  23 SW10      29.78R
DRYDEN           N/A     73  56  54 N8        29.72F
FORT STOCKTON  FAIR      69  54  58 SE7       29.79R
GUAD PASS      CLEAR     65  22  19 W35G43    29.90R
HOBBS          FAIR      70  18  13 W13       29.79R
MARFA          FAIR      61  16  17 NW9       29.94R
MIDLAND AIRPK  FAIR      75  55  50 S13G21    29.75S
MIDLAND INTL   FAIR      73  56  54 S15       29.75R
ODESSA           N/A    N/A N/A N/A MISG      29.76R
PECOS          FAIR      63  35  35 W8        29.75R
PRESIDIO       FAIR      78  16   9 NW13      29.80R
SEMINOLE       FAIR      66  22  18 W12       29.75S
SNYDER         FAIR      73  58  59 S8        29.72R
WINK           FAIR      68  26  20 W7        29.73R
$$
...OTHER STATIONS IN TEXAS...

CITY           SKY/WX    TMP DP  RH WIND       PRES   REMARKS
ABILENE        FAIR      71  61  70 S17       29.72R
AMARILLO       FAIR      66  24  20 W14       29.69R
AUSTIN         MOCLDY    69  64  84 S13       29.80F
BROWNSVILLE    CLOUDY    73  70  90 S12       29.84S
CORPUS CHRISTI CLOUDY    73  68  84 S9        29.84R
DALLAS FTW     MOCLDY    74  61  63 S16       29.76R
DEL RIO        FAIR      71  62  73 SE5       29.74R
EL PASO        PTCLDY    73  14  10 NW18G30   29.89R
HOUSTON INT    FAIR      69  65  86 S10       29.86S
LUBBOCK        FAIR      72  20  14 W21       29.72R
SAN ANGELO     FAIR      72  56  57 W5        29.74R
SAN ANTONIO    MOCLDY    70  61  73 S14G22    29.80S
WACO           FAIR      71  62  73 S21G30    29.78S
WICHITA FALLS  NOT AVBL
$$
...OTHER LOCATIONS IN NEW MEXICO...

CITY           SKY/WX    TMP DP  RH WIND       PRES   REMARKS
ALAMAGORDO     CLEAR     64  16  15 N10       29.91R
ALBUQUERQUE    CLEAR     55  12  18 N16G24    29.97R
CANNON AFB     PTCLDY    64  22  20 NW20G25   29.78R
CLOVIS         PTCLDY    63  21  20 W22G28    29.80R
HOLLOMAN AFB   CLEAR     58  16  19 NE9       29.89R
ROSWELL        CLEAR     71  16  12 NW17      29.80R
RUIDOSO        CLEAR     54  12  19 W15G22    30.00S
SANTA FE       CLEAR     50   9  19 NW16G23   29.93R
TRUTH OR CONSE CLEAR     61  11  14 NW8       29.95R
TUCUMCARI      MOCLDY    66  20  17 W17       29.75R
$$

USA.gov is the U.S. government's official web portal to all federal, state and local government web resources and services.